Show Low, AZ

9:06 PM MST on March 27, 2017 (GMT -0700)
Show Low Municipal

Weather History for KSOW - March, 2014

Change the Weather History Date:

Tuesday, March 11, 2014

  Actual Average Record
Temperature  
Mean Temperature 44 °F -  
Max Temperature 55 °F 53 °F 75 °F (1989)
Min Temperature 32 °F 31 °F 15 °F (1974)
Degree Days  
Heating Degree Days 22    
Moisture  
Dew Point 15 °F    
Average Humidity 33    
Maximum Humidity 48    
Minimum Humidity 17    
Precipitation  
Precipitation 0.00 in - - ()
Sea Level Pressure  
Sea Level Pressure 30.09 in    
Wind  
Wind Speed 11 mph (West)    
Max Wind Speed 16 mph    
Max Gust Speed 21 mph    
Visibility 10 miles    
Events      
Averages and records for this station are not official NWS values.
T = Trace of Precipitation, MM = Missing Value Source: NWS Daily Summary

Daily Weather History Graph

Daily Weather History Graph

Search for Another Location

Airport or City:

Trip Planner

Search our weather history database for the weather conditions in past years. The results will help you decide how hot, cold, wet, or windy it might be!

Date:

Astronomy

Mar. 11, 2014 Rise Set
Actual Time 6:35 AM MST 6:24 PM MST
Civil Twilight 6:10 AM MST 6:49 PM MST
Nautical Twilight 5:41 AM MST 7:18 PM MST
Astronomical Twilight 5:12 AM MST 7:47 PM MST
Moon 2:12 PM MST (3/11) 3:22 AM MST (3/11)
Length of Visible Light 12h 38m
Length of Day
11h 48m
Waxing Gibbous, 79% of the Moon is Illuminated
Mar 11
Waxing Gibbous
Mar 16
Full
Mar 23
Last Quarter
Mar 30
New
Apr 7
First Quarter

Hourly Weather History & Observations

Time (MST) Temp. Windchill Dew Point Humidity Pressure Visibility Wind Dir Wind Speed Gust Speed Precip Events Conditions
12:15 AM 37.4 °F 28.5 °F 17.6 °F 45% 30.08 in 10.0 mi South 15.0 mph - N/A   Clear
12:35 AM 37.4 °F 28.9 °F 17.6 °F 45% 30.09 in 10.0 mi South 13.8 mph - N/A   Clear
12:55 AM 37.4 °F 28.9 °F 19.4 °F 48% 30.08 in 10.0 mi South 13.8 mph - N/A   Clear
1:15 AM 37.4 °F 28.5 °F 19.4 °F 48% 30.08 in 10.0 mi South 15.0 mph - N/A   Clear
1:35 AM 39.2 °F 30.8 °F 19.4 °F 45% 30.07 in 10.0 mi South 15.0 mph - N/A   Clear
1:55 AM 39.2 °F 33.0 °F 19.4 °F 45% 30.08 in 10.0 mi SSW 9.2 mph - N/A   Clear
2:15 AM 39.2 °F 32.0 °F 19.4 °F 45% 30.07 in 10.0 mi South 11.5 mph - N/A   Clear
2:35 AM 39.2 °F 34.2 °F 19.4 °F 45% 30.09 in 10.0 mi SSW 6.9 mph - N/A   Clear
2:55 AM 39.2 °F 32.0 °F 19.4 °F 45% 30.09 in 10.0 mi South 11.5 mph - N/A   Clear
3:15 AM 39.2 °F 31.2 °F 19.4 °F 45% 30.07 in 10.0 mi South 13.8 mph - N/A   Clear
3:35 AM 39.2 °F 31.6 °F 19.4 °F 45% 30.07 in 10.0 mi South 12.7 mph - N/A   Clear
3:55 AM 37.4 °F 29.3 °F 19.4 °F 48% 30.06 in 10.0 mi South 12.7 mph - N/A   Clear
4:15 AM 39.2 °F 30.8 °F 19.4 °F 45% 30.06 in 10.0 mi South 15.0 mph - N/A   Clear
4:35 AM 39.2 °F 31.2 °F 19.4 °F 45% 30.06 in 10.0 mi South 13.8 mph - N/A   Clear
4:55 AM 37.4 °F 29.3 °F 19.4 °F 48% 30.06 in 10.0 mi South 12.7 mph - N/A   Clear
5:15 AM 37.4 °F 28.9 °F 19.4 °F 48% 30.06 in 10.0 mi South 13.8 mph - N/A   Clear
5:35 AM 37.4 °F 28.2 °F 19.4 °F 48% 30.06 in 10.0 mi South 16.1 mph - N/A   Clear
5:55 AM 39.2 °F 31.2 °F 19.4 °F 45% 30.07 in 10.0 mi South 13.8 mph - N/A   Clear
6:15 AM 39.2 °F 31.6 °F 19.4 °F 45% 30.07 in 10.0 mi South 12.7 mph - N/A   Clear
6:35 AM 37.4 °F 29.3 °F 19.4 °F 48% 30.08 in 10.0 mi South 12.7 mph - N/A   Clear
6:55 AM 37.4 °F 29.8 °F 19.4 °F 48% 30.08 in 10.0 mi South 11.5 mph - N/A   Clear
7:15 AM 39.2 °F 32.5 °F 19.4 °F 45% 30.09 in 10.0 mi South 10.4 mph - N/A   Clear
7:35 AM 41.0 °F 34.7 °F 19.4 °F 42% 30.09 in 10.0 mi South 10.4 mph - N/A   Clear
7:55 AM 42.8 °F 37.5 °F 19.4 °F 39% 30.10 in 10.0 mi South 9.2 mph - N/A   Clear
8:15 AM 46.4 °F 41.5 °F 19.4 °F 34% 30.11 in 10.0 mi SW 10.4 mph - N/A   Clear
8:35 AM 46.4 °F 41.5 °F 19.4 °F 34% 30.12 in 10.0 mi SW 10.4 mph - N/A   Clear
8:55 AM 48.2 °F - 17.6 °F 30% 30.12 in 10.0 mi WSW 9.2 mph - N/A   Clear
9:15 AM 48.2 °F - 17.6 °F 30% 30.12 in 10.0 mi WSW 6.9 mph - N/A   Clear
9:35 AM 50.0 °F - 19.4 °F 30% 30.12 in 10.0 mi West 8.1 mph - N/A   Clear
9:55 AM 50.0 °F - 15.8 °F 26% 30.11 in 10.0 mi NW 13.8 mph 19.6 mph N/A   Clear
10:15 AM 50.0 °F - 15.8 °F 26% 30.11 in 10.0 mi NW 11.5 mph - N/A   Clear
10:35 AM 51.8 °F - 15.8 °F 24% 30.11 in 10.0 mi WNW 11.5 mph 18.4 mph N/A   Clear
10:55 AM 51.8 °F - 15.8 °F 24% 30.11 in 10.0 mi West 11.5 mph - N/A   Clear
11:15 AM 53.6 °F - 15.8 °F 22% 30.10 in 10.0 mi NW 12.7 mph 17.3 mph N/A   Clear
11:35 AM 53.6 °F - 15.8 °F 22% 30.10 in 10.0 mi West 10.4 mph 16.1 mph N/A   Clear
11:55 AM 53.6 °F - 14.0 °F 21% 30.09 in 10.0 mi NW 11.5 mph 18.4 mph N/A   Clear
12:15 PM 53.6 °F - 14.0 °F 21% 30.08 in 10.0 mi NW 15.0 mph 20.7 mph N/A   Clear
12:35 PM 55.4 °F - 14.0 °F 20% 30.07 in 10.0 mi NNW 12.7 mph 18.4 mph N/A   Clear
12:55 PM 55.4 °F - 15.8 °F 21% 30.07 in 10.0 mi NW 8.1 mph 18.4 mph N/A   Clear
1:15 PM 55.4 °F - 15.8 °F 21% 30.06 in 10.0 mi NW 10.4 mph 20.7 mph N/A   Clear
1:35 PM 55.4 °F - 15.8 °F 21% 30.05 in 10.0 mi NW 13.8 mph 18.4 mph N/A   Clear
1:55 PM 55.4 °F - 15.8 °F 21% 30.04 in 10.0 mi WNW 11.5 mph - N/A   Clear
2:15 PM 55.4 °F - 15.8 °F 21% 30.04 in 10.0 mi NW 15.0 mph 19.6 mph N/A   Clear
2:35 PM 55.4 °F - 14.0 °F 20% 30.04 in 10.0 mi North 12.7 mph 19.6 mph N/A   Clear
2:55 PM 55.4 °F - 14.0 °F 20% 30.03 in 10.0 mi NNW 9.2 mph - N/A   Clear
3:15 PM 55.4 °F - 14.0 °F 20% 30.04 in 10.0 mi NNW 10.4 mph - N/A   Clear
3:35 PM 55.4 °F - 14.0 °F 20% 30.03 in 10.0 mi NNW 8.1 mph - N/A   Clear
3:55 PM 55.4 °F - 12.2 °F 18% 30.03 in 10.0 mi NNW 9.2 mph - N/A   Clear
4:15 PM 55.4 °F - 10.4 °F 17% 30.03 in 10.0 mi North 11.5 mph 17.3 mph N/A   Clear
4:35 PM 53.6 °F - 10.4 °F 18% 30.04 in 10.0 mi NNE 13.8 mph 20.7 mph N/A   Clear
4:55 PM 51.8 °F - 8.6 °F 18% 30.05 in 10.0 mi North 11.5 mph - N/A   Clear
5:15 PM 50.0 °F - 8.6 °F 19% 30.06 in 10.0 mi North 10.4 mph 16.1 mph N/A   Clear
5:35 PM 50.0 °F - 8.6 °F 19% 30.06 in 10.0 mi NNW 13.8 mph - N/A   Clear
5:55 PM 48.2 °F - 8.6 °F 20% 30.07 in 10.0 mi NNW 11.5 mph - N/A   Clear
6:15 PM 46.4 °F 43.5 °F 8.6 °F 22% 30.08 in 10.0 mi North 5.8 mph - N/A   Clear
6:35 PM 44.6 °F 42.2 °F 8.6 °F 23% 30.09 in 10.0 mi NE 4.6 mph - N/A   Clear
6:55 PM 42.8 °F 41.1 °F 8.6 °F 25% 30.10 in 10.0 mi NE 3.5 mph - N/A   Clear
7:15 PM 42.8 °F 38.0 °F 8.6 °F 25% 30.10 in 10.0 mi North 8.1 mph - N/A   Clear
7:35 PM 41.0 °F 38.0 °F 8.6 °F 26% 30.11 in 10.0 mi ESE 4.6 mph - N/A   Clear
7:55 PM 41.0 °F 39.0 °F 8.6 °F 26% 30.12 in 10.0 mi North 3.5 mph - N/A   Clear
8:15 PM 41.0 °F - 10.4 °F 29% 30.13 in 10.0 mi Calm Calm - N/A   Clear
8:35 PM 41.0 °F 39.0 °F 8.6 °F 26% 30.13 in 10.0 mi NNW 3.5 mph - N/A   Clear
8:55 PM 39.2 °F - 8.6 °F 28% 30.13 in 10.0 mi Calm Calm - N/A   Clear
9:15 PM 37.4 °F - 6.8 °F 28% 30.13 in 10.0 mi Calm Calm - N/A   Clear
9:35 PM 33.8 °F - 12.2 °F 41% 30.13 in 10.0 mi Calm Calm - N/A   Clear
9:55 PM 37.4 °F - 8.6 °F 30% 30.14 in 10.0 mi Calm Calm - N/A   Clear
10:15 PM 35.6 °F - 10.4 °F 35% 30.14 in 10.0 mi Calm Calm - N/A   Clear
10:35 PM 32.0 °F - 8.6 °F 38% 30.15 in 10.0 mi Calm Calm - N/A   Clear
10:55 PM 32.0 °F - 8.6 °F 38% 30.15 in 10.0 mi Calm Calm - N/A   Clear
11:15 PM 33.8 °F - 10.4 °F 38% 30.16 in 10.0 mi Calm Calm - N/A   Clear
11:35 PM 32.0 °F 28.7 °F 12.2 °F 44% 30.16 in 10.0 mi West 3.5 mph - N/A   Clear
11:55 PM 32.0 °F - 14.0 °F 48% 30.16 in 10.0 mi Calm Calm - N/A   Clear